TimeCST,TemperatureF,Dew PointF,Humidity,Sea Level PressureIn,VisibilityMPH,Wind Direction,Wind SpeedMPH,Gust SpeedMPH,PrecipitationIn,Events,Conditions,WindDirDegrees,DateUTC
12:15 AM,5.0,-0.4,78,30.04,10.0,North,15.0,-,N/A,,Overcast,350,2012-12-13 06:15:00
12:35 AM,5.0,-0.4,78,30.04,10.0,North,13.8,-,N/A,,Overcast,360,2012-12-13 06:35:00
12:55 AM,5.0,-0.4,78,30.04,10.0,North,10.4,-,N/A,,Overcast,350,2012-12-13 06:55:00
1:15 AM,5.0,-0.4,78,30.05,10.0,North,12.7,-,N/A,,Overcast,350,2012-12-13 07:15:00
1:35 AM,5.0,-0.4,78,30.05,10.0,North,12.7,-,N/A,,Overcast,350,2012-12-13 07:35:00
1:55 AM,5.0,-0.4,78,30.06,9.0,North,13.8,-,N/A,,Overcast,360,2012-12-13 07:55:00
2:15 AM,5.0,-0.4,78,30.07,10.0,North,12.7,-,N/A,,Overcast,350,2012-12-13 08:15:00
2:35 AM,5.0,-0.4,78,30.08,9.0,North,13.8,-,N/A,,Overcast,350,2012-12-13 08:35:00
2:55 AM,5.0,-0.4,78,30.09,10.0,North,12.7,-,N/A,,Overcast,350,2012-12-13 08:55:00
3:15 AM,5.0,-0.4,78,30.09,9.0,North,12.7,-,N/A,,Overcast,350,2012-12-13 09:15:00
3:35 AM,5.0,-0.4,78,30.09,8.0,North,12.7,17.3,N/A,,Overcast,350,2012-12-13 09:35:00
3:55 AM,3.2,-0.4,85,30.10,10.0,North,12.7,-,N/A,,Overcast,360,2012-12-13 09:55:00
4:15 AM,5.0,-0.4,78,30.10,10.0,North,10.4,-,N/A,,Overcast,350,2012-12-13 10:15:00
4:35 AM,3.2,-0.4,85,30.10,8.0,North,12.7,-,N/A,,Overcast,360,2012-12-13 10:35:00
4:55 AM,3.2,-0.4,85,30.10,8.0,North,12.7,-,N/A,,Overcast,350,2012-12-13 10:55:00
5:15 AM,3.2,-0.4,85,30.11,10.0,North,10.4,-,N/A,,Overcast,360,2012-12-13 11:15:00
5:35 AM,3.2,-0.4,85,30.11,8.0,NNW,9.2,-,N/A,,Overcast,340,2012-12-13 11:35:00
5:55 AM,1.4,-2.2,85,30.12,10.0,NNW,8.1,-,N/A,,Overcast,340,2012-12-13 11:55:00
6:15 AM,1.4,-2.2,85,30.12,10.0,NNW,11.5,-,N/A,,Overcast,340,2012-12-13 12:15:00
6:35 AM,1.4,-2.2,85,30.13,10.0,North,11.5,-,N/A,,Overcast,350,2012-12-13 12:35:00
6:55 AM,1.4,-2.2,85,30.12,10.0,North,10.4,-,N/A,,Overcast,360,2012-12-13 12:55:00
7:15 AM,1.4,-2.2,85,30.13,10.0,NNW,9.2,-,N/A,,Overcast,340,2012-12-13 13:15:00
7:35 AM,1.4,-2.2,85,30.13,10.0,NNW,9.2,-,N/A,,Overcast,340,2012-12-13 13:35:00
7:55 AM,1.4,-2.2,85,30.14,10.0,North,9.2,-,N/A,,Overcast,350,2012-12-13 13:55:00
8:15 AM,1.4,-2.2,85,30.13,10.0,North,8.1,-,N/A,,Overcast,360,2012-12-13 14:15:00
8:35 AM,3.2,-0.4,85,30.13,10.0,NNE,5.8,-,N/A,,Overcast,20,2012-12-13 14:35:00
8:55 AM,3.2,-0.4,85,30.14,10.0,North,5.8,-,N/A,,Overcast,360,2012-12-13 14:55:00
9:15 AM,3.2,-0.4,85,30.15,10.0,North,3.5,-,N/A,,Overcast,10,2012-12-13 15:15:00
9:35 AM,5.0,-0.4,78,30.15,9.0,North,5.8,-,N/A,,Overcast,350,2012-12-13 15:35:00
9:55 AM,5.0,-0.4,78,30.15,10.0,North,3.5,-,N/A,,Overcast,10,2012-12-13 15:55:00
10:15 AM,5.0,-0.4,78,30.15,10.0,Calm,Calm,-,N/A,,Overcast,0,2012-12-13 16:15:00
10:35 AM,5.0,-0.4,78,30.15,10.0,West,3.5,-,N/A,,Overcast,280,2012-12-13 16:35:00
10:55 AM,5.0,-0.4,78,30.15,10.0,Calm,Calm,-,N/A,,Overcast,0,2012-12-13 16:55:00
11:15 AM,5.0,-0.4,78,30.14,10.0,Calm,Calm,-,N/A,,Overcast,0,2012-12-13 17:15:00
11:35 AM,5.0,-0.4,78,30.13,10.0,Calm,Calm,-,N/A,,Overcast,0,2012-12-13 17:35:00
11:55 AM,5.0,-0.4,78,30.13,10.0,Calm,Calm,-,N/A,,Overcast,0,2012-12-13 17:55:00
12:15 PM,5.0,-0.4,78,30.13,10.0,WSW,4.6,-,N/A,,Overcast,250,2012-12-13 18:15:00
12:35 PM,6.8,-0.4,72,30.13,10.0,SW,4.6,-,N/A,,Overcast,230,2012-12-13 18:35:00
12:55 PM,6.8,-0.4,72,30.13,10.0,West,5.8,-,N/A,,Mostly Cloudy,260,2012-12-13 18:55:00
1:15 PM,6.8,1.4,79,30.12,10.0,WSW,4.6,-,N/A,,Partly Cloudy,240,2012-12-13 19:15:00
1:35 PM,6.8,1.4,79,30.12,10.0,WSW,3.5,-,N/A,,Partly Cloudy,250,2012-12-13 19:35:00
1:55 PM,6.8,1.4,79,30.12,10.0,WSW,3.5,-,N/A,,Scattered Clouds,250,2012-12-13 19:55:00
2:15 PM,8.6,1.4,73,30.11,10.0,Calm,Calm,-,N/A,,Overcast,0,2012-12-13 20:15:00
2:35 PM,8.6,1.4,73,30.11,3.0,Calm,Calm,-,N/A,Snow,Light Snow,0,2012-12-13 20:35:00
2:55 PM,8.6,1.4,73,30.10,9.0,Calm,Calm,-,N/A,,Overcast,0,2012-12-13 20:55:00
3:15 PM,8.6,3.2,79,30.09,10.0,SSE,4.6,-,N/A,,Overcast,150,2012-12-13 21:15:00
3:35 PM,8.6,3.2,79,30.09,9.0,SE,3.5,-,N/A,,Overcast,140,2012-12-13 21:35:00
3:55 PM,8.6,5.0,85,30.10,10.0,SSE,3.5,-,N/A,,Overcast,160,2012-12-13 21:55:00
4:35 PM,8.6,5.0,85,30.09,10.0,SE,6.9,-,N/A,,Overcast,140,2012-12-13 22:35:00
7:15 PM,10.4,6.8,85,30.08,10.0,SSE,6.9,-,N/A,,Overcast,150,2012-12-14 01:15:00
7:35 PM,10.4,6.8,85,30.07,10.0,SE,8.1,-,N/A,,Overcast,140,2012-12-14 01:35:00
7:55 PM,10.4,6.8,85,30.07,10.0,SSE,9.2,-,N/A,,Overcast,150,2012-12-14 01:55:00
8:15 PM,10.4,6.8,85,30.08,10.0,SSE,9.2,-,N/A,,Overcast,150,2012-12-14 02:15:00
8:35 PM,12.2,8.6,85,30.07,8.0,SSE,9.2,-,N/A,,Overcast,150,2012-12-14 02:35:00
8:55 PM,12.2,8.6,85,30.08,6.0,SE,10.4,-,N/A,,Overcast,140,2012-12-14 02:55:00
9:15 PM,12.2,8.6,85,30.07,7.0,SSE,11.5,-,N/A,,Overcast,150,2012-12-14 03:15:00
9:35 PM,12.2,8.6,85,30.07,10.0,SSE,12.7,-,N/A,,Overcast,160,2012-12-14 03:35:00
9:55 PM,14.0,8.6,79,30.07,10.0,SSE,12.7,-,N/A,,Overcast,160,2012-12-14 03:55:00
10:15 PM,14.0,10.4,86,30.06,10.0,South,12.7,-,N/A,,Overcast,170,2012-12-14 04:15:00
10:35 PM,14.0,10.4,86,30.06,10.0,South,11.5,-,N/A,,Overcast,170,2012-12-14 04:35:00
10:55 PM,15.8,12.2,86,30.06,5.0,South,11.5,-,N/A,,Overcast,170,2012-12-14 04:55:00
11:15 PM,15.8,12.2,86,30.05,7.0,South,12.7,-,N/A,,Overcast,170,2012-12-14 05:15:00
11:35 PM,15.8,14.0,93,30.04,7.0,South,12.7,-,N/A,,Overcast,170,2012-12-14 05:35:00